User: anonymous   Login
Location: Newark
(40.9833°N, 0.0333°W)
Time: 17:08:58
(UTC+00:00)
Language:

Explorer 11/Cluster Stage 4 - Orbit

View from above orbital plane
View from above orbital plane
View from above satellite
View from above satellite

Ground track
Ground track

The orbit data is extracted from the following two-line orbital elements,

1   107U 61013A   20294.42220556 +.00000460 +00000-0 +41061-4 0  9998
2   107 028.7869 195.6342 0546493 162.1076 199.9564 14.09033042983418
Epoch (UTC): 20 October 2020 10:07:58
Eccentricity: 0.0546493
inclination: 28.7869°
perigee height: 467 km
apogee height: 1258 km
right ascension of ascending node: 195.6342°
argument of perigee: 162.1076°
revolutions per day: 14.09033042
mean anomaly at epoch: 199.9564°
orbit number at epoch: 98341

The dashed part of the orbit path shows where the satellite is in the earth's shadow,  

DLR